Hourly Data Report for September 30, 2017

All times are specified in Local Standard Time (LST). Add 1 hour to adjust for Daylight Saving Time where and when it is observed.

KOUCHIBOUGUAC CS
NEW BRUNSWICK

46°47'00.000" N
65°01'00.000" W
21.00 m
8102328
71670
AKC

Download Data

Hourly Data (September 2017)
Hourly Data Report for September 30, 2017
Temp Definition
°C
Dew Point Temp Definition
°C
Rel Hum Definition
%
Wind Dir Definition
10's deg

Wind Spd Definition
km/h
Visibility Definition
km
Stn Press Definition
kPa
Hmdx Definition


Wind Chill Definition


Weather Definition


TIME
00:00 2.0 1.6 97 31 2   101.68     LegendNANA
01:00 1.2 0.8 97 32 2   101.71     LegendNANA
02:00 0.9 0.6 98 23 1   101.76     LegendNANA
03:00 -0.1 -0.3 98 27 1   101.82   0 LegendNANA
04:00 -0.7 -1.0 98 24 1   101.86   -1 LegendNANA
05:00 -0.8 -1.1 98 25 2   101.92   -1 LegendNANA
06:00 -1.3 -1.6 98 26 1   102.00   -2 LegendNANA
07:00 -0.8 -1.1 98 28 2   102.07   -1 LegendNANA
08:00 4.0 3.7 98 34 4   102.14     LegendNANA
09:00 8.0 4.4 78 35 9   102.20     LegendNANA
10:00 10.1 2.4 59 1 13   102.23     LegendNANA
11:00 9.9 1.4 55 36 9   102.25     LegendNANA
12:00 11.2 1.2 50 36 7   102.25     LegendNANA
13:00 11.4 0.3 46 4 6   102.23     LegendNANA
14:00 13.0 1.9 47 31 4   102.20     LegendNANA
15:00 13.0 2.0 47 9 4   102.16     LegendNANA
16:00 11.2 2.4 55 8 4   102.15     LegendNANA
17:00 10.3 2.3 58 9 4   102.15     LegendNANA
18:00 6.3 3.8 84 7 1   102.16     LegendNANA
19:00 3.1 1.8 91 16 3   102.20     LegendNANA
20:00 2.1 1.6 97   0   102.23     LegendNANA
21:00 0.8 0.4 97 17 2   102.21     LegendNANA
22:00 0.1 -0.3 98 17 1   102.18     LegendNANA
23:00 -0.8 -1.2 98 0 1   102.14   -1 LegendNANA

Notes on Data Quality.

Legend

  • E = Estimated
  • M = Missing
  • NA = Not Available
  • ‡ = Partner data that is not subject to review by the National Climate Archives
Date modified: